Terug naar catalogus

TechnoSat

TECHNOSAT

ActiefAmateurradioSSO
NORAD 42829·PAYLOAD·🇩🇪 Germany

Gelanceerd Jul 14, 2017 vanaf Baikonur Cosmodrome

Loading…

Volgende Passages (komende 24 uur)

TLE

VersSource: AMSAT

Epoch: Sep 14, 2026, 04:45 UTC

1 42829U 17042E   26257.19807953  .00002284  00000-0  16292-3 0  9992
2 42829  97.4394  51.5594 0018200 146.3560 213.8826 15.05392742500090

Volg TechnoSat in realtime met AllMySat

Download on the App Store